sat.trackr.live / text

‹ back to catalog

ONEWEB-0216

NORAD 48801 · 2021-045AL

PAYLOAD ACTIVE UNKNOWN

§ Identity

Operator
Country
UK
Launch date
2021-05-28
Launch site
VOSTO
Launch vehicle
Mass (kg)
RCS (m²)

Purposes: comms

External: N2YO · Heavens-Above · Gunter

§ Orbital elements

Epoch: 2026-05-25T01:38:53.024928Z

Period
109.46 min
Inclination
87.8996°
Eccentricity
0.0001957
Mean motion
13.15546652 rev/d
Perigee alt
1,200.3 km
Apogee alt
1,203.3 km
Semi-major
7,579.9 km
B*
-9.9431e-5
RAAN
263.8006°
Arg perigee
99.3012°
Mean anomaly
260.8339°
Rev number
24,126

§ Raw data

ONEWEB-02161 48801U 21045AL  26145.06866927 -.00000025  00000+0 -99431-4 0  99932 48801  87.8996 263.8006 0001957  99.3012 260.8339 13.15546652241265

JSON: /api/v1/satellites/48801 · /tle

For live sub-satellite position, see the globe view (requires WebGL).

§ Visibility from observer

Set your observer location to see the next 7 days of passes ≥ 10°. The values pass through the URL so the page stays shareable.

No JS? Fill the form by hand. The geolocation button needs JavaScript.